When you browse on this site, cookies collect data to enhance your experience and personalize the content and advertising you see.
Visit our Privacy Policy to learn more. By continuing to use the site, you agree to this use of cookies and data.
  • In Österreich
  • Länderverzeichnis
  • Für 7 Tage
  • Wassertemperatur
  • Satellitenkarten
  • Wetterkarte
  • News
  • Widgets
  • user-avatar
    Anmelden

    Stündliche Wetter Coral Springs

    Heute, 20 April, Samstag

    Zeit Temperatur Niederschläge Wind Luftdruck Luftfeuchtigkeit
    00:00 +23°C° 0.4 mm 4 m/S 759 mmHg 76%
    01:00 +23°C° 0.4 mm 4 m/S 759 mmHg 75%
    02:00 +22°C° 0.2 mm 4 m/S 759 mmHg 71%
    03:00 +22°C° 0.2 mm 3 m/S 760 mmHg 67%
    04:00 +22°C° 0.2 mm 3 m/S 760 mmHg 64%
    05:00 +22°C° 0.1 mm 3 m/S 760 mmHg 63%
    06:00 +22°C° 0.1 mm 3 m/S 760 mmHg 61%
    07:00 +22°C° 0.1 mm 3 m/S 761 mmHg 60%
    08:00 +24°C° 0 mm 3 m/S 761 mmHg 56%
    09:00 +25°C° 0 mm 4 m/S 761 mmHg 51%
    10:00 +26°C° 0 mm 5 m/S 762 mmHg 47%
    11:00 +27°C° 0 mm 5 m/S 762 mmHg 43%
    12:00 +28°C° 0 mm 5 m/S 761 mmHg 39%
    13:00 +30°C° 0 mm 5 m/S 761 mmHg 35%
    14:00 +29°C° 0 mm 5 m/S 761 mmHg 36%
    15:00 +29°C° 0 mm 5 m/S 761 mmHg 38%
    16:00 +29°C° 0 mm 6 m/S 760 mmHg 39%
    17:00 +27°C° 0 mm 6 m/S 761 mmHg 42%
    18:00 +26°C° 0 mm 6 m/S 761 mmHg 45%
    19:00 +25°C° 0 mm 5 m/S 761 mmHg 47%
    20:00 +23°C° 0 mm 5 m/S 762 mmHg 48%
    21:00 +22°C° 0 mm 5 m/S 762 mmHg 50%
    22:00 +21°C° 0 mm 5 m/S 763 mmHg 51%
    23:00 +20°C° 0 mm 5 m/S 763 mmHg 52%

    Morgen, 21 April, Sonntag

    Zeit Temperatur Niederschläge Wind Luftdruck Luftfeuchtigkeit
    00:00 +20°C° 0 mm 4 m/S 763 mmHg 52%
    01:00 +19°C° 0 mm 4 m/S 763 mmHg 53%
    02:00 +19°C° 0 mm 3 m/S 763 mmHg 53%
    03:00 +19°C° 0 mm 2 m/S 763 mmHg 54%
    04:00 +19°C° 0 mm 2 m/S 763 mmHg 54%
    05:00 +19°C° 0 mm 2 m/S 763 mmHg 54%
    06:00 +19°C° 0 mm 2 m/S 763 mmHg 54%
    07:00 +20°C° 0 mm 2 m/S 764 mmHg 54%
    08:00 +21°C° 0 mm 3 m/S 764 mmHg 50%
    09:00 +24°C° 0 mm 3 m/S 765 mmHg 47%
    10:00 +25°C° 0 mm 4 m/S 765 mmHg 43%
    11:00 +26°C° 0 mm 4 m/S 765 mmHg 39%
    12:00 +27°C° 0 mm 4 m/S 765 mmHg 35%
    13:00 +28°C° 0 mm 4 m/S 765 mmHg 30%
    14:00 +28°C° 0 mm 4 m/S 764 mmHg 29%
    15:00 +29°C° 0 mm 4 m/S 764 mmHg 28%
    16:00 +29°C° 0 mm 4 m/S 763 mmHg 27%
    17:00 +28°C° 0 mm 3 m/S 763 mmHg 29%
    18:00 +27°C° 0 mm 3 m/S 764 mmHg 32%
    19:00 +25°C° 0 mm 3 m/S 764 mmHg 34%
    20:00 +25°C° 0 mm 3 m/S 764 mmHg 38%
    21:00 +24°C° 0 mm 3 m/S 765 mmHg 41%
    22:00 +24°C° 0 mm 3 m/S 765 mmHg 44%
    23:00 +22°C° 0 mm 3 m/S 765 mmHg 47%

    übermorgen, 22 April, Montag

    Zeit Temperatur Niederschläge Wind Luftdruck Luftfeuchtigkeit
    00:00 +22°C° 0 mm 3 m/S 765 mmHg 49%
    01:00 +23°C° 0 mm 2 m/S 765 mmHg 52%
    02:00 +21°C° 0 mm 2 m/S 765 mmHg 52%
    03:00 +21°C° 0 mm 2 m/S 764 mmHg 53%
    04:00 +21°C° 0 mm 2 m/S 764 mmHg 53%
    05:00 +21°C° 0 mm 2 m/S 764 mmHg 53%
    06:00 +21°C° 0 mm 3 m/S 765 mmHg 53%
    07:00 +21°C° 0 mm 3 m/S 765 mmHg 53%
    08:00 +24°C° 0 mm 3 m/S 765 mmHg 47%
    09:00 +26°C° 0 mm 3 m/S 765 mmHg 41%
    10:00 +28°C° 0 mm 4 m/S 766 mmHg 34%
    11:00 +29°C° 0 mm 4 m/S 765 mmHg 33%
    12:00 +29°C° 0 mm 4 m/S 765 mmHg 32%
    13:00 +30°C° 0 mm 5 m/S 765 mmHg 30%
    14:00 +30°C° 0 mm 5 m/S 764 mmHg 32%
    15:00 +30°C° 0 mm 5 m/S 764 mmHg 34%
    16:00 +29°C° 0 mm 6 m/S 763 mmHg 36%
    17:00 +28°C° 0 mm 6 m/S 763 mmHg 40%
    18:00 +27°C° 0 mm 5 m/S 764 mmHg 44%
    19:00 +25°C° 0 mm 5 m/S 764 mmHg 48%
    20:00 +25°C° 0 mm 5 m/S 764 mmHg 51%
    21:00 +23°C° 0 mm 5 m/S 764 mmHg 55%
    22:00 +23°C° 0 mm 4 m/S 765 mmHg 58%
    23:00 +23°C° 0 mm 4 m/S 764 mmHg 59%

    23 April, Dienstag

    Zeit Temperatur Niederschläge Wind Luftdruck Luftfeuchtigkeit
    00:00 +22°C° 0 mm 4 m/S 764 mmHg 60%
    01:00 +22°C° 0 mm 4 m/S 764 mmHg 61%
    02:00 +22°C° 0 mm 4 m/S 764 mmHg 61%
    03:00 +22°C° 0 mm 4 m/S 763 mmHg 62%
    04:00 +22°C° 0 mm 3 m/S 763 mmHg 62%
    05:00 +22°C° 0 mm 4 m/S 763 mmHg 61%
    06:00 +23°C° 0 mm 4 m/S 764 mmHg 60%
    07:00 +23°C° 0 mm 4 m/S 764 mmHg 59%
    08:00 +25°C° 0 mm 4 m/S 764 mmHg 58%
    09:00 +25°C° 0 mm 4 m/S 764 mmHg 57%
    10:00 +25°C° 0 mm 4 m/S 765 mmHg 56%
    11:00 +26°C° 0 mm 4 m/S 764 mmHg 56%
    12:00 +26°C° 0 mm 4 m/S 764 mmHg 56%
    13:00 +26°C° 0 mm 4 m/S 763 mmHg 55%
    14:00 +27°C° 0 mm 5 m/S 763 mmHg 54%
    15:00 +27°C° 0 mm 5 m/S 763 mmHg 53%
    16:00 +27°C° 0 mm 5 m/S 762 mmHg 52%
    17:00 +27°C° 0 mm 5 m/S 762 mmHg 54%
    18:00 +26°C° 0 mm 4 m/S 763 mmHg 56%
    19:00 +26°C° 0 mm 4 m/S 763 mmHg 58%
    20:00 +25°C° 0 mm 4 m/S 763 mmHg 59%
    21:00 +25°C° 0 mm 4 m/S 763 mmHg 60%
    22:00 +25°C° 0 mm 4 m/S 764 mmHg 61%
    23:00 +25°C° 0 mm 4 m/S 763 mmHg 62%

    24 April, Mittwoch

    Zeit Temperatur Niederschläge Wind Luftdruck Luftfeuchtigkeit
    00:00 +24°C° 0 mm 3 m/S 763 mmHg 63%
    01:00 +24°C° 0 mm 3 m/S 763 mmHg 64%
    02:00 +24°C° 0 mm 3 m/S 762 mmHg 64%
    03:00 +24°C° 0 mm 3 m/S 762 mmHg 64%
    04:00 +24°C° 0 mm 3 m/S 762 mmHg 65%
    05:00 +24°C° 0 mm 3 m/S 762 mmHg 64%
    06:00 +24°C° 0 mm 3 m/S 762 mmHg 63%
    07:00 +25°C° 0 mm 3 m/S 763 mmHg 62%
    08:00 +25°C° 0 mm 3 m/S 763 mmHg 60%
    09:00 +26°C° 0 mm 4 m/S 763 mmHg 57%
    10:00 +26°C° 0 mm 4 m/S 763 mmHg 55%
    11:00 +28°C° 0 mm 4 m/S 763 mmHg 51%
    12:00 +29°C° 0 mm 4 m/S 762 mmHg 46%
    13:00 +30°C° 0 mm 4 m/S 762 mmHg 42%
    14:00 +30°C° 0 mm 4 m/S 762 mmHg 42%
    15:00 +30°C° 0 mm 4 m/S 761 mmHg 42%
    16:00 +30°C° 0 mm 4 m/S 761 mmHg 43%
    17:00 +29°C° 0 mm 4 m/S 761 mmHg 47%
    18:00 +28°C° 0 mm 4 m/S 761 mmHg 52%
    19:00 +26°C° 0 mm 4 m/S 762 mmHg 56%
    20:00 +26°C° 0 mm 4 m/S 762 mmHg 58%
    21:00 +26°C° 0 mm 4 m/S 762 mmHg 60%
    22:00 +25°C° 0 mm 3 m/S 762 mmHg 61%
    23:00 +25°C° 0 mm 3 m/S 762 mmHg 63%

    25 April, Donnerstag

    Zeit Temperatur Niederschläge Wind Luftdruck Luftfeuchtigkeit
    00:00 +25°C° 0 mm 3 m/S 762 mmHg 64%
    01:00 +25°C° 0 mm 3 m/S 761 mmHg 65%
    02:00 +25°C° 0 mm 3 m/S 761 mmHg 67%
    03:00 +24°C° 0 mm 3 m/S 761 mmHg 70%
    04:00 +24°C° 0 mm 3 m/S 761 mmHg 72%
    05:00 +25°C° 0 mm 2 m/S 761 mmHg 71%
    06:00 +25°C° 0 mm 2 m/S 761 mmHg 71%
    07:00 +25°C° 0 mm 2 m/S 762 mmHg 70%
    08:00 +27°C° 0 mm 3 m/S 762 mmHg 64%
    09:00 +28°C° 0 mm 3 m/S 762 mmHg 58%
    10:00 +30°C° 0 mm 3 m/S 762 mmHg 53%
    11:00 +30°C° 0 mm 4 m/S 762 mmHg 51%
    12:00 +32°C° 0 mm 4 m/S 762 mmHg 50%
    13:00 +32°C° 0 mm 4 m/S 761 mmHg 49%
    14:00 +32°C° 0.1 mm 4 m/S 761 mmHg 50%
    15:00 +32°C° 0.1 mm 4 m/S 761 mmHg 51%
    16:00 +32°C° 0.1 mm 4 m/S 760 mmHg 52%
    17:00 +30°C° 0.2 mm 4 m/S 761 mmHg 56%
    18:00 +29°C° 0.2 mm 4 m/S 761 mmHg 61%
    19:00 +28°C° 0.2 mm 3 m/S 761 mmHg 65%
    20:00 +28°C° 0.1 mm 3 m/S 761 mmHg 66%
    21:00 +28°C° 0.1 mm 3 m/S 761 mmHg 67%
    22:00 +27°C° 0.1 mm 3 m/S 761 mmHg 68%
    23:00 +27°C° 0 mm 3 m/S 761 mmHg 69%
    Mehr zeigen